Powrót do katalogu

FENGYUN 1C DEB

AktywnySSO
NORAD 29769·DEBRIS·🇨🇳 China

Wystrzelony May 10, 1999 z Taiyuan Satellite Launch Center

Loading…

Następne Przeloty (najbliższe 24 godziny)

TLE

ŚwieżeSource: Space-Track

Epoka: Sep 12, 2026, 16:23 UTC

1 29769U 99025BK  26255.68297514  .00001517  00000-0  77914-3 0  9995
2 29769  99.0876 322.8532 0092376  78.7963 282.3576 14.14705786  5490

Śledź FENGYUN 1C DEB w czasie rzeczywistym z AllMySat

Download on the App Store